Simultaneous Nadir Overpasses (SNOs) Predictions

Prediction of SNOs between NOAA-19 and METOP-C Satellite Orbit:

Table of predicted SNOs for the next 14.0 days since TLE Epoch: 8/6/2022
Index Date (NOAA-19) Time (NOAA-19) Lat,Lon (NOAA-19) SZA (NOAA-19 ) Date (METOP-C) Time (METOP-C) Lat,Lon (METOP-C) SZA (METOP-C ) Distance(km) Time Diff (sec)
1 08/15/2022 23:18:23 -80.88, 43.72 111.52 08/15/2022 23:19:23 -80.86, 43.60 111.52 2.60 60
2 08/16/2022 00:09:17 80.87,-148.72 68.52 08/16/2022 00:10:03 80.89,-148.68 68.55 1.52 46
3 08/16/2022 01:00:22 -80.87, 18.52 111.47 08/16/2022 01:00:44 -80.88, 18.45 111.47 1.30 22
4 08/16/2022 01:51:17 80.87,-174.29 68.54 08/16/2022 01:51:25 80.88,-174.18 68.55 1.96 8
5 08/16/2022 02:42:22 -80.87, -7.04 111.45 08/16/2022 02:42:06 -80.87, -7.05 111.47 0.83 16
6 08/16/2022 03:33:17 80.88, 160.14 68.56 08/16/2022 03:32:47 80.87, 160.32 68.56 3.30 30
7 08/16/2022 04:24:21 -80.87, -32.24 111.41 08/16/2022 04:23:27 -80.88, -32.19 111.42 1.16 54



Historial Predications of SNOs between NOAA-19 and METOP-C
